Regional Weather Roundup
Issued by NWS

Home | Current Version | Previous Version | Graphics & Text | Print | Product List | Glossary On
Versions: 1 2 3 4 5 6 7 8 9 10 11 12 13 14 15 16 17 18 19 20 21 22 23 24 25 26 27 28 29 30 31 32 33 34 35 36 37 38 39 40 41 42 43 44 45 46 47 48 49 50
000
ASUS43 KDTX 290810
RWRMI
MICHIGAN HOURLY REGIONAL WEATHER ROUNDUP
NATIONAL WEATHER SERVICE DETROIT/PONTIAC MI
ISSUED BY NATIONAL WEATHER SERVICE GRAND RAPIDS MI
400 AM EDT MON MAY 29 2017

NOTE: "FAIR" INDICATES FEW OR NO CLOUDS BELOW 12,000 FEET WITH NO
SIGNIFICANT WEATHER AND/OR OBSTRUCTION TO VISIBILITY.

MIZ047>049-052>055-059>063-066>070-074>076-081>083-290900-
SOUTHEAST LOWER MICHIGAN

CITY           SKY/WX    TMP DP  RH WIND       PRES   REMARKS
ADRIAN         CLEAR     56  54  93 SW5       29.76F
ALMA           PTCLDY    56  54  95 CALM      29.72S
ANN ARBOR      CLEAR     52  52 100 S5        29.73F
BAD AXE        CLEAR     57  56  99 W3        29.69R
DETROIT CITY   CLEAR     58  57  97 W6        29.72F
DETROIT        PTCLDY    57  55  93 SW7       29.74F
FLINT          CLEAR     55  53  93 SW5       29.72S
GROSSE ILE     CLEAR     58  56  92 W3        29.73S
HILLSDALE      CLEAR     55  52  88 W3        29.76S
HOWELL         CLEAR     55  51  87 W6        29.72F

CITY           SKY/WX    TMP DP  RH WIND       PRES   REMARKS
JACKSON        CLEAR     56  53  90 W8        29.75F
LANSING        CLEAR     57  52  83 W6        29.74S
MASON          CLEAR     57  54  88 SW5       29.74F
MONROE         CLEAR     58  56  94 SW6       29.74S
MT. CLEMENS    CLEAR     59  59 100 W6        29.70S
PONTIAC        CLEAR     56  54  93 W6        29.71F
PORT HOPE        N/A     56  55  97 S3        29.66S
PORT HURON     CLEAR     59  57  94 CALM      29.71S FOG
TRI CITIES     CLEAR     59  54  83 S8        29.71S
YPSILANTI      CLEAR     59  56  89 SW7       29.74F
$$
MIZ043>046-050>051-056>058-064>065-071>073-077>080-290900-
SOUTHWEST LOWER MICHIGAN

CITY           SKY/WX    TMP DP  RH WIND       PRES   REMARKS
BATTLE CREEK   CLEAR     56  52  86 W7        29.76F
BENTON HARBOR  CLEAR     53  49  86 CALM      29.76F
BIG RAPIDS     CLEAR     50  48  94 S6        29.71R
COLDWATER      CLEAR     56  55  95 SW3       29.77S
HOLLAND        CLEAR     56  47  71 SW6       29.75S
GRAND RAPIDS   CLEAR     56  53  90 SW7       29.74S
KALAMAZOO      CLEAR     55  50  83 SW5       29.76F
MARSHALL       CLEAR     55  54  97 SW3       29.75S
MOUNT PLEASANT CLEAR     56  52  89 W5        29.70R
MUSKEGON       CLEAR     51  47  86 CALM      29.73S
STURGIS        CLEAR     56  54  92 CALM      29.77S
$$
MIZ016>042-290900-
NORTHERN LOWER MICHIGAN

CITY           SKY/WX    TMP DP  RH WIND       PRES   REMARKS
ALPENA         FOG       52  52 100 S5        29.64S VSB 1/4
BEAVER ISLAND  FOG       47  47  98 SW7       29.64S VSB 1/4
BELLAIRE       FOG       50  48  95 CALM      29.65S VSB 1/2
CADILLAC       CLEAR     51  50  97 SW7       29.68S
CHARLEVOIX     CLEAR     53  53 100 S6        29.66S
GAYLORD        CLEAR     53  49  86 CALM      29.65S
HOUGHTON LAKE  PTCLDY    56  51  84 SW5       29.68S
MANISTEE       CLEAR     46  45  96 E3        29.68R
OSCODA         CLEAR     53  52  97 SW3       29.66S
PELLSTON       CLEAR     49  47  93 CALM      29.63S FOG
TRAVERSE CITY  CLEAR     53  50  89 CALM      29.64R
LUDINGTON      CLEAR     49  49  97 CALM      29.69R
$$
MIZ007>008-015-290900-
EASTERN UPPER MICHIGAN

CITY           SKY/WX    TMP DP  RH WIND       PRES   REMARKS
KINROSS        CLOUDY    52  52 100 W6        29.63F FOG
MACKINAC ISLAN CLEAR     47  47 100 CALM      29.63S FOG
NEWBERRY       CLOUDY    53  52  97 W5        29.62R
S. S. MARIE    FOG       55  53  93 CALM      29.62F VSB 3/4
$$
MIZ004>006-011>014-085-290900-
CENTRAL UPPER MICHIGAN

CITY           SKY/WX    TMP DP  RH WIND       PRES   REMARKS
MANISTIQUE     FOG       50  47  89 CALM      29.61S VSB 1/4
ESCANABA       FOG       50  50 100 CALM      29.62F VSB 1/4
SAWYER-GWINN   MOCLDY    52  51  95 SW8       29.61F
$$
MIZ001>003-009>011-084-290900-
WESTERN UPPER MICHIGAN

CITY           SKY/WX    TMP DP  RH WIND       PRES   REMARKS
IRON MOUNTAIN  CLEAR     48  45  89 SW3       29.61F
HOUGHTON       LGT RAIN  52  49  89 SW8       29.56F
COPPER HARBOR    N/A     51  50  96 CALM      29.56F
IRONWOOD       CLOUDY    51  48  89 SW9       29.61F
$$

ABBREVIATIONS USED IN REMARKS
   TC - TEMPERATURE IN CELSIUS
  WCI - WIND CHILL INDEX
   HX - HEAT INDEX
  VSB - VISIBILITY




USA.gov is the U.S. government's official web portal to all federal, state and local government web resources and services.